SWN25Q CYQX-CYHZ

Flight info

Callsign SWN25Q
Flight time 1h 17m
Altitude 35000
Route SILRO DCT CAYLY CABOT5
Aircraft B738/M-SDE2E3FGHIRWXY/LB1

Departure

Time 2026-05-08 07:01
Airport Gander International Airport (CYQX)

Arrival

Time 2026-05-08 08:19
Airport Halifax / Stanfield International Airport (CYHZ)
Time Latitude Longitude Altitude Speed Heading
2026-05-08 06:44 48.94608 -54.57107 466 ft 0 kts 20°
2026-05-08 06:50 48.94607 -54.57107 466 ft 0 kts 27°
2026-05-08 06:58 48.94609 -54.57105 463 ft 1 kts 27°
2026-05-08 06:58 48.94638 -54.57080 464 ft 8 kts 33°
2026-05-08 06:58 48.94705 -54.57015 464 ft 14 kts 27°
2026-05-08 06:58 48.94813 -54.56955 463 ft 18 kts 18°
2026-05-08 06:59 48.94916 -54.56905 467 ft 15 kts 20°
2026-05-08 06:59 48.94931 -54.56738 461 ft 22 kts 106°
2026-05-08 06:59 48.94879 -54.56496 459 ft 26 kts 109°
2026-05-08 06:59 48.94818 -54.56206 454 ft 29 kts 107°
2026-05-08 07:00 48.94762 -54.56008 455 ft 11 kts 160°
2026-05-08 07:00 48.94729 -54.56016 456 ft 0 kts 191°
2026-05-08 07:00 48.94596 -54.56053 460 ft 52 kts 190°
2026-05-08 07:00 48.94008 -54.56221 456 ft 118 kts 191°
2026-05-08 07:01 48.93043 -54.56549 616 ft 158 kts 192°
2026-05-08 07:01 48.92009 -54.57095 1401 ft 160 kts 200°
2026-05-08 07:01 48.91034 -54.57799 2367 ft 155 kts 221°
2026-05-08 07:01 48.90463 -54.58986 2641 ft 174 kts 234°
2026-05-08 07:02 48.89833 -54.60499 2869 ft 190 kts 234°
2026-05-08 07:02 48.89104 -54.62229 3287 ft 198 kts 233°
2026-05-08 07:02 48.88330 -54.64046 3566 ft 215 kts 233°
2026-05-08 07:02 48.87488 -54.66007 4042 ft 226 kts 233°
2026-05-08 07:03 48.86623 -54.68011 4828 ft 227 kts 232°
2026-05-08 07:03 48.85749 -54.70024 5606 ft 230 kts 231°
2026-05-08 07:03 48.84856 -54.72067 6352 ft 233 kts 231°
2026-05-08 07:03 48.83945 -54.74141 7021 ft 239 kts 231°
2026-05-08 07:04 48.83015 -54.76248 7766 ft 241 kts 232°
2026-05-08 07:04 48.82068 -54.78388 8473 ft 246 kts 232°
2026-05-08 07:04 48.81104 -54.80559 9182 ft 251 kts 232°
2026-05-08 07:04 48.80133 -54.82744 9871 ft 254 kts 232°
2026-05-08 07:05 48.79103 -54.85048 10148 ft 275 kts 232°
2026-05-08 07:05 48.77985 -54.87541 10314 ft 297 kts 232°
2026-05-08 07:05 48.76782 -54.90221 10474 ft 318 kts 232°
2026-05-08 07:05 48.75502 -54.93071 10607 ft 337 kts 233°
2026-05-08 07:06 48.74151 -54.96079 10764 ft 353 kts 233°
2026-05-08 07:06 48.72754 -54.99191 11160 ft 361 kts 233°
2026-05-08 07:06 48.71337 -55.02348 11697 ft 364 kts 233°
2026-05-08 07:06 48.69910 -55.05522 12270 ft 367 kts 233°
2026-05-08 07:07 48.68458 -55.08744 12724 ft 373 kts 233°
2026-05-08 07:07 48.66991 -55.11994 13294 ft 375 kts 233°
2026-05-08 07:07 48.65513 -55.15265 13845 ft 378 kts 233°
2026-05-08 07:07 48.64042 -55.18513 14407 ft 378 kts 233°
2026-05-08 07:08 48.62553 -55.21798 14996 ft 379 kts 233°
2026-05-08 07:08 48.61057 -55.25096 15570 ft 381 kts 232°
2026-05-08 07:08 48.59555 -55.28399 16119 ft 382 kts 232°
2026-05-08 07:08 48.58041 -55.31726 16658 ft 384 kts 232°
2026-05-08 07:09 48.56524 -55.35052 17165 ft 386 kts 232°
2026-05-08 07:09 48.54998 -55.38396 17643 ft 388 kts 232°
2026-05-08 07:09 48.53444 -55.41794 17876 ft 397 kts 232°
2026-05-08 07:09 48.51871 -55.45232 18273 ft 399 kts 232°
2026-05-08 07:10 48.50295 -55.48673 18752 ft 399 kts 232°
2026-05-08 07:10 48.48711 -55.52128 19168 ft 401 kts 232°
2026-05-08 07:10 48.47123 -55.55585 19542 ft 403 kts 232°
2026-05-08 07:10 48.45519 -55.59074 19915 ft 406 kts 232°
2026-05-08 07:11 48.43907 -55.62575 20308 ft 408 kts 232°
2026-05-08 07:11 48.42305 -55.66048 20667 ft 410 kts 232°
2026-05-08 07:11 48.40672 -55.69586 21034 ft 412 kts 232°
2026-05-08 07:11 48.39031 -55.73136 21388 ft 414 kts 232°
2026-05-08 07:12 48.37380 -55.76703 21774 ft 416 kts 231°
2026-05-08 07:12 48.35721 -55.80282 22111 ft 418 kts 231°
2026-05-08 07:12 48.34049 -55.83885 22433 ft 420 kts 231°
2026-05-08 07:12 48.32371 -55.87498 22757 ft 422 kts 231°
2026-05-08 07:13 48.30682 -55.91128 23075 ft 424 kts 231°
2026-05-08 07:13 48.28985 -55.94769 23352 ft 426 kts 231°
2026-05-08 07:13 48.27282 -55.98419 23629 ft 427 kts 231°
2026-05-08 07:13 48.25579 -56.02066 23919 ft 427 kts 231°
2026-05-08 07:14 48.23868 -56.05724 24182 ft 428 kts 231°
2026-05-08 07:14 48.22157 -56.09376 24435 ft 429 kts 231°
2026-05-08 07:14 48.20438 -56.13041 24690 ft 430 kts 231°
2026-05-08 07:14 48.18716 -56.16708 24954 ft 431 kts 231°
2026-05-08 07:15 48.16988 -56.20382 25197 ft 431 kts 231°
2026-05-08 07:15 48.15278 -56.24011 25420 ft 432 kts 231°
2026-05-08 07:15 48.13544 -56.27688 25630 ft 433 kts 231°
2026-05-08 07:15 48.11785 -56.31413 25832 ft 433 kts 230°
2026-05-08 07:16 48.10048 -56.35087 26092 ft 431 kts 230°
2026-05-08 07:16 48.08339 -56.38698 26405 ft 429 kts 230°
2026-05-08 07:16 48.06619 -56.42329 26737 ft 427 kts 230°
2026-05-08 07:16 48.04910 -56.45931 27052 ft 425 kts 230°
2026-05-08 07:17 48.03208 -56.49511 27364 ft 423 kts 230°
2026-05-08 07:17 48.01506 -56.53085 27695 ft 421 kts 230°
2026-05-08 07:17 47.99811 -56.56643 28028 ft 419 kts 230°
2026-05-08 07:17 47.98121 -56.60183 28378 ft 417 kts 230°
2026-05-08 07:18 47.96439 -56.63703 28698 ft 416 kts 229°
2026-05-08 07:18 47.94760 -56.67211 29038 ft 414 kts 229°
2026-05-08 07:18 47.93086 -56.70705 29408 ft 412 kts 229°
2026-05-08 07:18 47.91423 -56.74172 29774 ft 410 kts 229°
2026-05-08 07:19 47.89766 -56.77621 30107 ft 407 kts 229°
2026-05-08 07:19 47.88142 -56.81000 30465 ft 404 kts 230°
2026-05-08 07:19 47.86511 -56.84390 30841 ft 400 kts 230°
2026-05-08 07:19 47.84890 -56.87751 31192 ft 398 kts 230°
2026-05-08 07:20 47.83281 -56.91083 31523 ft 395 kts 230°
2026-05-08 07:20 47.81680 -56.94396 31848 ft 393 kts 230°
2026-05-08 07:20 47.80089 -56.97684 32203 ft 390 kts 230°
2026-05-08 07:20 47.78512 -57.00938 32623 ft 385 kts 230°
2026-05-08 07:21 47.76953 -57.04153 33007 ft 382 kts 231°
2026-05-08 07:21 47.75402 -57.07346 33313 ft 380 kts 231°
2026-05-08 07:21 47.73856 -57.10524 33591 ft 379 kts 231°
2026-05-08 07:21 47.72313 -57.13692 33849 ft 377 kts 231°
2026-05-08 07:22 47.70795 -57.16809 34415 ft 367 kts 231°
2026-05-08 07:22 47.69324 -57.19826 34611 ft 366 kts 231°
2026-05-08 07:22 47.66373 -57.25865 34670 ft 359 kts 231°
2026-05-08 07:23 47.63414 -57.31900 34677 ft 364 kts 231°
2026-05-08 07:23 47.60420 -57.37995 34678 ft 366 kts 231°
2026-05-08 07:24 47.57414 -57.44107 34677 ft 367 kts 231°
2026-05-08 07:24 47.54415 -57.50190 34676 ft 368 kts 231°
2026-05-08 07:25 47.51401 -57.56290 34675 ft 367 kts 231°
2026-05-08 07:26 47.46870 -57.65434 34676 ft 367 kts 230°
2026-05-08 07:26 47.43844 -57.71525 34670 ft 367 kts 230°
2026-05-08 07:27 47.40819 -57.77600 34673 ft 367 kts 230°
2026-05-08 07:27 47.37791 -57.83667 34668 ft 367 kts 230°
2026-05-08 07:28 47.34764 -57.89719 34666 ft 367 kts 230°
2026-05-08 07:28 47.31727 -57.95779 34673 ft 368 kts 230°
2026-05-08 07:29 47.28701 -58.01802 34673 ft 368 kts 230°
2026-05-08 07:29 47.25642 -58.07878 34669 ft 368 kts 230°
2026-05-08 07:30 47.23101 -58.12914 34668 ft 368 kts 230°
2026-05-08 07:30 47.20043 -58.18964 34666 ft 368 kts 230°
2026-05-08 07:31 47.16979 -58.25012 34669 ft 369 kts 230°
2026-05-08 07:31 47.13909 -58.31059 34668 ft 369 kts 230°
2026-05-08 07:32 47.10835 -58.37101 34668 ft 369 kts 230°
2026-05-08 07:32 47.07755 -58.43143 34668 ft 370 kts 230°
2026-05-08 07:33 47.04693 -58.49140 34691 ft 370 kts 229°
2026-05-08 07:33 47.01608 -58.55162 34674 ft 369 kts 229°
2026-05-08 07:34 46.98825 -58.61501 34674 ft 373 kts 236°
2026-05-08 07:34 46.96460 -58.68262 34661 ft 373 kts 236°
2026-05-08 07:35 46.94087 -58.75014 34663 ft 372 kts 236°
2026-05-08 07:35 46.91708 -58.81739 34672 ft 372 kts 236°
2026-05-08 07:36 46.89319 -58.88465 34667 ft 373 kts 236°
2026-05-08 07:36 46.86919 -58.95199 34668 ft 373 kts 236°
2026-05-08 07:37 46.84528 -59.01894 34672 ft 374 kts 236°
2026-05-08 07:37 46.82114 -59.08635 34671 ft 375 kts 236°
2026-05-08 07:38 46.79693 -59.15379 34667 ft 375 kts 236°
2026-05-08 07:38 46.77267 -59.22122 34668 ft 375 kts 236°
2026-05-08 07:39 46.74839 -59.28850 34671 ft 375 kts 236°
2026-05-08 07:39 46.72402 -59.35590 34715 ft 375 kts 235°
2026-05-08 07:40 46.69962 -59.42319 34678 ft 375 kts 235°
2026-05-08 07:40 46.67518 -59.49041 34670 ft 375 kts 235°
2026-05-08 07:41 46.65074 -59.55747 34674 ft 375 kts 234°
2026-05-08 07:41 46.62620 -59.62463 34668 ft 375 kts 234°
2026-05-08 07:42 46.60163 -59.69168 34673 ft 375 kts 234°
2026-05-08 07:42 46.57705 -59.75863 34670 ft 376 kts 234°
2026-05-08 07:43 46.55254 -59.82521 34664 ft 376 kts 234°
2026-05-08 07:43 46.52784 -59.89214 34665 ft 376 kts 234°
2026-05-08 07:44 46.50308 -59.95907 34667 ft 377 kts 234°
2026-05-08 07:44 46.47821 -60.02611 34671 ft 377 kts 234°
2026-05-08 07:45 46.45330 -60.09311 34671 ft 378 kts 234°
2026-05-08 07:45 46.42829 -60.16020 34668 ft 378 kts 234°
2026-05-08 07:46 46.40326 -60.22721 34667 ft 378 kts 234°
2026-05-08 07:46 46.37814 -60.29427 34668 ft 379 kts 234°
2026-05-08 07:47 46.35309 -60.36097 34666 ft 379 kts 234°
2026-05-08 07:47 46.32790 -60.42789 34657 ft 379 kts 234°
2026-05-08 07:48 46.30265 -60.49480 34648 ft 379 kts 234°
2026-05-08 07:48 46.27739 -60.56157 34653 ft 379 kts 234°
2026-05-08 07:49 46.25202 -60.62847 34643 ft 379 kts 234°
2026-05-08 07:49 46.22666 -60.69517 34655 ft 379 kts 234°
2026-05-08 07:50 46.20125 -60.76183 34659 ft 379 kts 234°
2026-05-08 07:50 46.17576 -60.82856 34655 ft 380 kts 234°
2026-05-08 07:51 46.15037 -60.89484 34646 ft 380 kts 234°
2026-05-08 07:51 46.12482 -60.96142 34708 ft 379 kts 234°
2026-05-08 07:52 46.09948 -61.02735 34659 ft 371 kts 234°
2026-05-08 07:52 46.07455 -61.09203 34659 ft 368 kts 233°
2026-05-08 07:53 46.04960 -61.15649 34662 ft 368 kts 233°
2026-05-08 07:53 46.02462 -61.22091 34651 ft 368 kts 233°
2026-05-08 07:54 45.99960 -61.28526 34649 ft 369 kts 233°
2026-05-08 07:54 45.97464 -61.34935 34668 ft 370 kts 233°
2026-05-08 07:55 45.94941 -61.41401 34665 ft 371 kts 233°
2026-05-08 07:55 45.92408 -61.47873 34677 ft 371 kts 233°
2026-05-08 07:56 45.89871 -61.54344 34672 ft 372 kts 233°
2026-05-08 07:56 45.87326 -61.60818 34676 ft 372 kts 233°
2026-05-08 07:56 45.86048 -61.64063 34291 ft 376 kts 233°
2026-05-08 07:57 45.84769 -61.67310 33765 ft 371 kts 233°
2026-05-08 07:57 45.83518 -61.70484 33059 ft 370 kts 233°
2026-05-08 07:57 45.82246 -61.73702 32314 ft 370 kts 233°
2026-05-08 07:57 45.80972 -61.76921 31644 ft 371 kts 232°
2026-05-08 07:58 45.79697 -61.80137 30864 ft 372 kts 232°
2026-05-08 07:58 45.78416 -61.83365 30092 ft 373 kts 232°
2026-05-08 07:58 45.77129 -61.86603 29231 ft 375 kts 233°
2026-05-08 07:58 45.75837 -61.89851 28309 ft 375 kts 233°
2026-05-08 07:59 45.74547 -61.93095 27435 ft 375 kts 234°
2026-05-08 07:59 45.73252 -61.96347 26544 ft 376 kts 235°
2026-05-08 07:59 45.71953 -61.99604 25638 ft 378 kts 236°
2026-05-08 07:59 45.70658 -62.02849 24995 ft 373 kts 236°
2026-05-08 08:00 45.69373 -62.06068 24340 ft 370 kts 237°
2026-05-08 08:00 45.68101 -62.09250 23700 ft 366 kts 237°
2026-05-08 08:00 45.66835 -62.12408 23033 ft 368 kts 238°
2026-05-08 08:00 45.65555 -62.15599 22302 ft 380 kts 238°
2026-05-08 08:01 45.64237 -62.18881 21600 ft 379 kts 238°
2026-05-08 08:01 45.62932 -62.22128 20936 ft 373 kts 238°
2026-05-08 08:01 45.61574 -62.25246 20184 ft 368 kts 232°
2026-05-08 08:01 45.59925 -62.28061 19174 ft 372 kts 227°
2026-05-08 08:02 45.58189 -62.30825 18268 ft 374 kts 227°
2026-05-08 08:02 45.56448 -62.33570 17444 ft 372 kts 227°
2026-05-08 08:02 45.54717 -62.36312 16639 ft 370 kts 227°
2026-05-08 08:02 45.53011 -62.39034 15945 ft 366 kts 227°
2026-05-08 08:03 45.51340 -62.41718 15563 ft 356 kts 228°
2026-05-08 08:03 45.49708 -62.44351 14981 ft 353 kts 228°
2026-05-08 08:03 45.48096 -62.46955 14380 ft 349 kts 228°
2026-05-08 08:03 45.46494 -62.49544 13781 ft 347 kts 228°
2026-05-08 08:04 45.44902 -62.52116 13145 ft 345 kts 229°
2026-05-08 08:04 45.43318 -62.54675 12500 ft 343 kts 229°
2026-05-08 08:04 45.41766 -62.57180 11894 ft 340 kts 229°
2026-05-08 08:04 45.40204 -62.59699 11295 ft 338 kts 229°
2026-05-08 08:05 45.38681 -62.62153 11145 ft 324 kts 229°
2026-05-08 08:05 45.37209 -62.64522 10992 ft 315 kts 228°
2026-05-08 08:05 45.35781 -62.66819 10847 ft 307 kts 229°
2026-05-08 08:05 45.34373 -62.69082 10749 ft 303 kts 228°
2026-05-08 08:06 45.32996 -62.71292 10607 ft 292 kts 228°
2026-05-08 08:06 45.31672 -62.73417 10480 ft 281 kts 229°
2026-05-08 08:06 45.30398 -62.75459 10355 ft 271 kts 228°
2026-05-08 08:06 45.29172 -62.77424 10250 ft 261 kts 229°
2026-05-08 08:07 45.27988 -62.79320 10141 ft 252 kts 229°
2026-05-08 08:07 45.26848 -62.81145 10048 ft 243 kts 229°
2026-05-08 08:07 45.25736 -62.82924 9810 ft 240 kts 228°
2026-05-08 08:07 45.24653 -62.84654 9586 ft 237 kts 229°
2026-05-08 08:08 45.23561 -62.86399 9284 ft 236 kts 229°
2026-05-08 08:08 45.22472 -62.88137 8992 ft 235 kts 229°
2026-05-08 08:08 45.21384 -62.89871 8701 ft 235 kts 229°
2026-05-08 08:08 45.20299 -62.91600 8412 ft 234 kts 229°
2026-05-08 08:09 45.19288 -62.93409 7970 ft 239 kts 238°
2026-05-08 08:09 45.18463 -62.95475 7607 ft 242 kts 242°
2026-05-08 08:09 45.17671 -62.97588 7298 ft 242 kts 242°
2026-05-08 08:09 45.16884 -62.99697 7026 ft 242 kts 242°
2026-05-08 08:10 45.16090 -63.01806 6738 ft 242 kts 242°
2026-05-08 08:10 45.15294 -63.03904 6464 ft 242 kts 242°
2026-05-08 08:10 45.14492 -63.06003 6185 ft 242 kts 243°
2026-05-08 08:10 45.13689 -63.08097 5887 ft 243 kts 243°
2026-05-08 08:11 45.12883 -63.10191 5609 ft 242 kts 243°
2026-05-08 08:11 45.12074 -63.12288 5337 ft 242 kts 243°
2026-05-08 08:11 45.11265 -63.14377 5061 ft 242 kts 243°
2026-05-08 08:11 45.10457 -63.16464 4795 ft 241 kts 243°
2026-05-08 08:12 45.09650 -63.18544 4534 ft 240 kts 243°
2026-05-08 08:12 45.08847 -63.20609 4275 ft 239 kts 243°
2026-05-08 08:12 45.08047 -63.22669 4013 ft 238 kts 243°
2026-05-08 08:12 45.07250 -63.24717 3770 ft 236 kts 243°
2026-05-08 08:13 45.06467 -63.26727 3674 ft 232 kts 243°
2026-05-08 08:13 45.05681 -63.28745 3579 ft 235 kts 243°
2026-05-08 08:13 45.04888 -63.30779 3476 ft 235 kts 243°
2026-05-08 08:13 45.04108 -63.32773 3356 ft 228 kts 243°
2026-05-08 08:14 45.03361 -63.34682 3223 ft 222 kts 243°
2026-05-08 08:14 45.02611 -63.36582 3045 ft 218 kts 240°
2026-05-08 08:14 45.01526 -63.38062 3022 ft 216 kts 212°
2026-05-08 08:14 45.00280 -63.39126 3002 ft 199 kts 216°
2026-05-08 08:15 44.99208 -63.40195 2955 ft 180 kts 217°
2026-05-08 08:15 44.98208 -63.41198 2780 ft 175 kts 217°
2026-05-08 08:15 44.97213 -63.42186 2545 ft 173 kts 217°
2026-05-08 08:15 44.96262 -63.43126 2316 ft 163 kts 217°
2026-05-08 08:16 44.95357 -63.44023 2093 ft 157 kts 217°
2026-05-08 08:16 44.94453 -63.44919 1883 ft 160 kts 218°
2026-05-08 08:16 44.93540 -63.45824 1662 ft 161 kts 218°
2026-05-08 08:16 44.92622 -63.46732 1434 ft 160 kts 218°
2026-05-08 08:17 44.91719 -63.47625 1201 ft 157 kts 217°
2026-05-08 08:17 44.90829 -63.48507 985 ft 155 kts 217°
2026-05-08 08:17 44.89945 -63.49383 719 ft 156 kts 217°
2026-05-08 08:17 44.89365 -63.49953 607 ft 152 kts 218°
2026-05-08 08:18 44.88497 -63.50818 469 ft 152 kts 217°
2026-05-08 08:18 44.87714 -63.51594 450 ft 113 kts 215°
2026-05-08 08:18 44.87238 -63.52065 447 ft 65 kts 214°
2026-05-08 08:18 44.86890 -63.52407 448 ft 58 kts 216°
2026-05-08 08:19 44.86653 -63.52637 447 ft 34 kts 215°
2026-05-08 08:19 44.86615 -63.52787 448 ft 15 kts 291°
2026-05-08 08:19 44.86670 -63.52909 451 ft 15 kts 306°
2026-05-08 08:19 44.86725 -63.53032 449 ft 16 kts 303°
2026-05-08 08:20 44.86802 -63.53162 450 ft 19 kts 309°
2026-05-08 08:20 44.86884 -63.53300 451 ft 12 kts 311°
2026-05-08 08:20 44.86956 -63.53312 451 ft 13 kts 25°
2026-05-08 08:20 44.87001 -63.53302 451 ft 4 kts 303°
2026-05-08 08:21 44.87004 -63.53336 451 ft 5 kts 269°
2026-05-08 08:21 44.87001 -63.53381 451 ft 3 kts 264°
2026-05-08 08:21 44.87000 -63.53400 451 ft 2 kts 264°
2026-05-08 08:21 44.86999 -63.53403 451 ft 0 kts 264°